Location: Breitenfeld
(46.8500°N, 15.6333°E)
Time: 12:05:18
(UTC+00:00)

SL-24 R/B - Pass Details

Date: 09 April 2020
Orbit: 504 x 1003 km, 97.4° (Epoch: 28 May)

Event Time Altitude Azimuth Distance (km) Brightness Sun altitude
Rises 18:45:47 0° 15° (NNE) 2,845 7.6 -11.7°
Reaches altitude 10° 18:48:04 10° 19° (NNE) 1,877 6.6 -12.1°
Maximum altitude 18:52:02 60° 100° (E) 612 3.7 -12.7°
Drops below altitude 10° 18:55:40 10° 181° (S) 1,729 6.1 -13.3°
Sets 18:57:42 0° 185° (S) 2,595 7.0 -13.6°
